Location: Chena
(64.8152°N, 147.9227°W)
Time: 08:02:07
(UTC+00:00)

N. Korean satellite - Pass Details

Date: 25 January 2021
Orbit: 451 x 502 km, 97.2° (Epoch: 08 March)

Event Time Altitude Azimuth Distance (km) Brightness Sun altitude
Rises 14:04:03 0° 24° (NNE) 2,539 10.8 -29.6°
Reaches altitude 10° 14:07:06 10° 53° (NE) 1,642 10.1 -29.3°
Maximum altitude 14:08:49 13° 83° (E) 1,454 9.8 -29.1°
Drops below altitude 10° 14:10:31 10° 112° (ESE) 1,623 9.8 -28.9°
Sets 14:13:29 0° 141° (SE) 2,482 10.4 -28.6°
